1484409600.92,46758,6.75,71528.8,-18.21,-36.31,-37.27,0,*64
1484409602.14,46759,6.75,71530.0,-18.21,-36.19,-37.27,0,*6F
1484409603.37,46760,6.75,71528.8,-18.19,-36.19,-37.27,0,*6E
1484409604.59,46761,6.75,71530.0,-18.21,-36.31,-37.27,0,*6E
1484409605.83,46762,6.75,71526.3,-18.21,-36.37,-37.33,0,*6E
1484409607.09,46763,6.75,71528.3,-18.19,-36.37,-37.33,0,*64
1484409608.33,46764,6.81,71530.5,-18.21,-36.37,-37.27,0,*6D
1484409609.58,46765,6.75,71524.8,-18.19,-36.31,-37.27,0,*61
1484409610.82,46766,6.75,71526.0,-18.19,-36.31,-37.27,0,*62
1484409612.03,46767,6.75,71526.3,-18.21,-36.31,-37.27,0,*68
1484409613.25,46768,6.75,71526.5,-18.21,-36.31,-37.33,0,*62
1484409614.49,46769,6.75,71524.0,-18.21,-36.61,-37.45,0,*67
1484409615.74,46770,6.75,71528.0,-18.21,-36.73,-37.51,0,*69
1484409616.98,46771,6.75,71524.0,-18.21,-36.61,-37.33,0,*6F
1484409618.24,46772,6.75,71522.5,-18.19,-36.61,-37.45,0,*66
1484409619.48,46773,6.75,71524.0,-18.19,-36.55,-37.33,0,*61
1484409620.71,46774,6.75,71524.8,-18.21,-36.31,-37.15,0,*6B
1484409621.95,46775,6.75,71526.0,-18.21,-36.49,-37.15,0,*65
1484409623.18,46776,6.75,71526.0,-18.21,-36.55,-37.15,0,*6B
1484409624.44,46777,6.75,71522.8,-18.21,-36.49,-37.09,0,*6A
1484409625.69,46778,6.75,71522.3,-18.19,-36.31,-36.97,0,*67
1484409626.95,46779,6.75,71526.0,-18.19,-36.31,-37.09,0,*60
1484409628.22,46780,6.75,71524.5,-18.21,-36.37,-37.09,0,*6B
1484409629.49,46781,6.75,71526.5,-18.19,-36.49,-37.15,0,*65
1484409630.76,46782,6.75,71526.0,-18.19,-36.49,-37.27,0,*67
1484409632.05,46783,6.75,71524.0,-18.19,-36.37,-37.09,0,*63
1484409633.29,46784,6.75,71524.3,-18.17,-36.37,-37.15,0,*67
1484409634.52,46785,6.75,71522.5,-18.17,-36.49,-37.33,0,*6B
1484409635.76,46786,6.75,71526.3,-18.17,-36.49,-37.27,0,*6D
1484409637.0,46787,6.75,71524.0,-18.17,-36.49,-37.15,0,*6D
1484409638.24,46788,6.75,71524.3,-18.17,-36.49,-37.15,0,*62
1484409639.48,46789,6.75,71524.0,-18.15,-36.31,-37.03,0,*69
1484409640.75,46790,6.75,71524.3,-18.15,-36.43,-37.21,0,*64
1484409641.99,46791,6.75,71530.8,-18.17,-36.61,-37.45,0,*65
1484409643.25,46792,6.75,71526.5,-18.17,-36.61,-37.51,0,*63
1484409644.52,46793,6.75,71526.8,-18.17,-36.79,-37.63,0,*6A
1484409645.75,46794,6.75,71526.3,-18.17,-36.61,-37.33,0,*61
1484409646.96,46795,6.75,71522.0,-18.17,-36.73,-37.45,0,*62
1484409648.2,46796,6.75,71524.5,-18.15,-36.73,-37.45,0,*63
1484409649.47,46797,6.75,71526.8,-18.15,-36.49,-37.27,0,*6F
1484409650.7,46798,6.75,71526.0,-18.17,-36.73,-37.69,0,*61
1484409651.96,46799,6.75,71526.3,-18.17,-36.79,-37.69,0,*6A
1484409653.2,46800,6.75,71524.0,-18.15,-36.55,-37.45,0,*67
1484409654.44,46801,6.75,71520.3,-18.15,-36.55,-37.45,0,*66
1484409655.65,46802,6.75,71522.0,-18.17,-36.55,-37.27,0,*63
1484409656.89,46803,6.75,71522.0,-18.15,-36.67,-37.57,0,*66
1484409658.16,46804,6.75,71520.0,-18.17,-36.91,-37.51,0,*6C
1484409659.42,46805,6.75,71522.8,-18.17,-36.79,-37.63,0,*6A
1484409660.72,46806,6.75,71516.5,-18.15,-36.49,-37.21,0,*6E
1484409662.01,46807,6.75,71518.8,-18.15,-36.25,-36.91,0,*6F
1484409663.3,46808,6.75,71518.0,-18.15,-36.49,-37.09,0,*6A
1484409664.55,46809,6.75,71520.5,-18.15,-36.67,-37.57,0,*6C
1484409665.79,46810,6.75,71518.5,-18.11,-36.61,-37.33,0,*64
1484409667.08,46811,6.75,71512.8,-18.15,-36.91,-37.69,0,*61
1484409668.36,46812,6.75,71516.3,-18.11,-36.61,-37.39,0,*6C
1484409669.6,46813,6.75,71520.0,-18.15,-36.73,-37.57,0,*62
1484409670.84,46814,6.75,71520.0,-18.15,-36.67,-37.45,0,*63
1484409672.06,46815,6.75,71520.5,-18.11,-36.67,-37.57,0,*65
1484409673.32,46816,6.75,71520.0,-18.11,-36.97,-37.63,0,*6E
1484409674.57,46817,6.75,71524.8,-18.11,-36.97,-37.63,0,*6F
1484409675.84,46818,6.75,71522.8,-18.11,-36.49,-37.39,0,*6C
1484409677.12,46819,6.75,71520.3,-18.09,-36.97,-37.63,0,*68
1484409678.37,46820,6.75,71520.5,-18.11,-36.79,-37.57,0,*6C
1484409679.62,46821,6.75,71518.8,-18.11,-36.85,-37.81,0,*65
1484409680.89,46822,6.75,71522.0,-18.11,-36.61,-37.51,0,*61
1484409682.16,46823,6.75,71522.0,-18.11,-36.79,-37.51,0,*69
1484409683.43,46824,6.75,71520.5,-18.11,-36.79,-37.63,0,*6F
1484409684.7,46825,6.75,71522.5,-18.09,-36.79,-37.57,0,*60
1484409685.97,46826,6.75,71518.5,-18.09,-36.67,-37.51,0,*6A
1484409687.22,46827,6.75,71516.3,-18.11,-36.37,-37.03,0,*60
1484409688.46,46828,6.75,71512.5,-18.09,-36.43,-37.33,0,*66
1484409689.71,46829,6.75,71516.0,-18.09,-36.43,-37.15,0,*63
1484409690.98,46830,6.75,71516.0,-18.09,-36.37,-37.03,0,*6F
1484409692.22,46831,6.75,71516.8,-18.09,-36.43,-37.33,0,*6E
1484409693.47,46832,6.75,71518.5,-18.09,-36.67,-37.57,0,*69
1484409694.73,46833,6.75,71526.8,-18.09,-36.79,-37.75,0,*67
1484409696.01,46834,6.75,71524.5,-18.09,-36.97,-37.81,0,*6B
1484409697.26,46835,6.75,71526.5,-18.11,-37.15,-37.81,0,*68
1484409698.53,46836,6.75,71522.8,-18.09,-37.15,-37.81,0,*62
1484409699.77,46837,6.75,71518.5,-18.09,-37.03,-37.75,0,*6F
1484409701.05,46838,6.75,71518.3,-18.09,-37.03,-37.81,0,*6B
1484409702.31,46839,6.75,71518.8,-18.09,-37.15,-37.93,0,*6E
1484409703.58,46840,6.75,71518.8,-18.09,-37.03,-37.93,0,*67
1484409704.85,46841,6.75,71520.3,-18.09,-37.03,-37.81,0,*65
1484409706.12,46842,6.75,71522.8,-18.09,-37.33,-37.99,0,*6C
1484409707.39,46843,6.81,71528.0,-18.09,-37.51,-38.17,0,*60
1484409708.66,46844,6.75,71524.8,-18.09,-37.51,-38.17,0,*67
1484409709.96,46845,6.75,71524.5,-18.09,-37.51,-38.29,0,*6B
1484409711.22,46846,6.75,71530.3,-18.09,-37.39,-38.17,0,*6B
1484409712.52,46847,6.75,71530.0,-18.09,-37.39,-38.29,0,*67
1484409713.81,46848,6.75,71530.8,-18.09,-37.39,-38.11,0,*63
1484409715.08,46849,6.75,71526.3,-18.09,-37.33,-38.11,0,*68
1484409716.32,46850,6.75,71528.5,-18.11,-37.33,-38.11,0,*69
1484409717.62,46851,6.75,71526.0,-18.09,-37.51,-38.29,0,*6E
1484409718.9,46852,6.75,71526.8,-18.09,-37.81,-38.55,0,*6B
1484409720.17,46853,6.75,71524.8,-18.11,-37.81,-38.67,0,*62
1484409721.45,46854,6.75,71524.3,-18.11,-37.81,-38.67,0,*65
1484409722.69,46855,6.75,71524.8,-18.11,-37.75,-38.67,0,*6F
1484409723.94,46856,6.75,71524.3,-18.09,-37.75,-38.55,0,*64
1484409725.21,46857,6.75,71530.3,-18.15,-37.81,-38.73,0,*67
1484409726.48,46858,6.75,71528.8,-18.15,-37.69,-38.55,0,*6A
1484409727.74,46859,6.75,71530.0,-18.15,-37.63,-38.61,0,*66
1484409729.02,46860,6.75,71528.0,-18.15,-37.63,-38.55,0,*6B
1484409730.28,46861,6.75,71526.0,-18.15,-37.69,-38.61,0,*67
1484409731.55,46862,6.75,71524.3,-18.15,-37.69,-38.61,0,*64
1484409732.82,46863,6.75,71526.3,-18.15,-37.69,-38.55,0,*62
1484409734.09,46864,6.75,71524.5,-18.15,-37.63,-38.35,0,*69
1484409735.36,46865,6.75,71524.8,-18.15,-37.39,-38.05,0,*64
1484409736.62,46866,6.75,71528.3,-18.17,-37.51,-38.29,0,*65
1484409737.89,46867,6.75,71524.5,-18.15,-37.57,-38.23,0,*6A
1484409739.14,46868,6.75,71528.3,-18.15,-37.57,-38.55,0,*64
1484409740.4,46869,6.75,71530.3,-18.17,-37.69,-38.67,0,*6B
1484409741.64,46870,6.75,71526.5,-18.17,-37.93,-38.85,0,*6A
1484409742.91,46871,6.75,71528.0,-18.15,-37.81,-38.55,0,*67
1484409744.15,46872,6.75,71530.3,-18.17,-37.69,-38.61,0,*67
1484409745.36,46873,6.75,71530.8,-18.17,-37.75,-38.61,0,*6B
1484409746.6,46874,6.75,71528.0,-18.17,-37.75,-38.67,0,*6A
1484409747.86,46875,6.75,71530.8,-18.17,-37.69,-38.49,0,*6A
1484409749.1,46876,6.75,71532.8,-18.17,-37.69,-38.43,0,*63
1484409750.37,46877,6.81,71532.0,-18.17,-37.69,-38.29,0,*6E
1484409751.67,46878,6.75,71530.8,-18.15,-37.63,-38.23,0,*63
1484409752.9,46879,6.75,71532.3,-18.17,-37.69,-38.43,0,*6C
1484409754.14,46880,6.75,71532.0,-18.17,-37.69,-38.61,0,*6A
1484409755.38,46881,6.75,71526.5,-18.17,-37.69,-38.43,0,*6B
1484409756.65,46882,6.75,71528.3,-18.17,-37.69,-38.49,0,*62
1484409757.88,46883,6.75,71532.3,-18.17,-37.69,-38.61,0,*69
1484409759.15,46884,6.75,71528.5,-18.17,-37.69,-38.49,0,*64
1484409760.39,46885,6.75,71532.5,-18.17,-37.63,-38.43,0,*65
1484409761.66,46886,6.75,71534.8,-18.17,-37.51,-38.29,0,*6B
1484409762.89,46887,6.75,71532.3,-18.17,-37.63,-38.43,0,*67
1484409764.16,46888,6.81,71538.8,-18.17,-37.63,-38.29,0,*64
1484409765.4,46889,6.75,71530.0,-18.17,-37.69,-38.43,0,*63
1484409766.64,46890,6.75,71526.8,-18.17,-37.75,-38.67,0,*60
1484409767.9,46891,6.75,71530.5,-18.17,-37.69,-38.67,0,*6C
1484409769.14,46892,6.75,71530.3,-18.17,-37.69,-38.43,0,*69
1484409770.4,46893,6.75,71528.8,-18.17,-37.69,-38.29,0,*64
1484409771.61,46894,6.75,71528.0,-18.17,-37.45,-38.05,0,*63
1484409772.85,46895,6.75,71530.3,-18.17,-37.63,-38.43,0,*64
1484409774.09,46896,6.75,71530.8,-18.17,-37.69,-38.61,0,*6D
1484409775.36,46897,6.75,71532.5,-18.17,-37.51,-38.29,0,*6B
1484409776.59,46898,6.75,71532.5,-18.17,-37.63,-38.43,0,*69
1484409777.86,46899,6.75,71532.3,-18.17,-37.63,-38.49,0,*62
1484409779.12,46900,6.75,71534.8,-18.17,-37.63,-38.49,0,*63
1484409780.36,46901,6.75,71534.3,-18.17,-37.69,-38.43,0,*62
1484409781.66,46902,6.75,71532.0,-18.19,-37.63,-38.29,0,*69
1484409782.96,46903,6.75,71526.5,-18.19,-37.51,-38.29,0,*69
1484409784.23,46904,6.75,71524.8,-18.19,-37.63,-38.43,0,*63
1484409785.52,46905,6.75,71526.8,-18.19,-37.69,-38.49,0,*62
1484409786.79,46906,6.75,71530.5,-18.19,-37.87,-38.67,0,*6D
1484409788.06,46907,6.75,71530.8,-18.19,-37.87,-38.67,0,*6C
1484409789.31,46908,6.75,71524.8,-18.19,-37.87,-38.61,0,*65
1484409790.58,46909,6.75,71528.0,-18.19,-37.63,-38.43,0,*6E
1484409791.87,46910,6.75,71528.3,-18.19,-37.51,-38.29,0,*6B
1484409793.14,46911,6.75,71532.0,-18.19,-37.45,-38.11,0,*64
1484409794.4,46912,6.75,71524.3,-18.19,-37.33,-38.11,0,*66
1484409795.63,46913,6.75,71520.3,-18.19,-37.33,-38.05,0,*62
1484409796.87,46914,6.75,71520.8,-18.19,-37.33,-38.05,0,*65
1484409798.14,46915,6.75,71526.0,-18.19,-37.45,-38.23,0,*61
1484409799.35,46916,6.75,71528.0,-18.17,-37.27,-38.05,0,*6C
1484409800.55,46917,6.75,71530.3,-18.17,-37.15,-38.05,0,*6C
1484409801.79,46918,6.75,71526.3,-18.17,-37.27,-38.11,0,*67
1484409803.05,46919,6.75,71524.5,-18.15,-37.39,-38.05,0,*6E
1484409804.32,46920,6.75,71528.3,-18.15,-37.57,-38.23,0,*68
1484409805.59,46921,6.75,71528.0,-18.17,-37.63,-38.49,0,*60
1484409806.82,46922,6.75,71526.0,-18.17,-37.75,-38.67,0,*68
1484409808.06,46923,6.75,71526.3,-18.17,-37.69,-38.61,0,*62
1484409809.27,46924,6.75,71530.3,-18.17,-37.75,-38.61,0,*68
1484409810.51,46925,6.75,71528.5,-18.17,-37.69,-38.61,0,*64
1484409811.78,46926,6.75,71526.5,-18.15,-37.63,-38.55,0,*68
1484409813.04,46927,6.75,71530.5,-18.17,-37.69,-38.49,0,*6C
1484409814.27,46928,6.75,71530.8,-18.17,-37.45,-38.11,0,*60
1484409815.51,46929,6.75,71528.0,-18.15,-37.27,-38.05,0,*62
1484409816.75,46930,6.75,71528.0,-18.17,-37.39,-38.05,0,*67
1484409817.99,46931,6.75,71528.0,-18.11,-37.33,-37.99,0,*60
1484409819.24,46932,6.75,71528.5,-18.11,-37.33,-37.99,0,*63
1484409820.52,46933,6.75,71524.3,-18.11,-37.39,-37.99,0,*68
1484409821.78,46934,6.75,71526.5,-18.15,-37.45,-38.23,0,*6E
1484409823.05,46935,6.75,71528.5,-18.11,-37.39,-38.11,0,*61
1484409824.35,46936,6.75,71530.3,-18.09,-37.21,-37.93,0,*67
1484409825.6,46937,6.75,71530.5,-18.11,-37.33,-37.99,0,*66
1484409826.85,46938,6.75,71528.0,-18.11,-37.33,-37.99,0,*69
1484409828.09,46939,6.75,71526.8,-18.11,-37.33,-37.99,0,*68
1484409829.36,46940,6.75,71526.0,-18.11,-37.51,-38.11,0,*6D
1484409830.64,46941,6.75,71522.5,-18.11,-37.51,-38.29,0,*67
1484409831.91,46942,6.75,71526.8,-18.11,-37.51,-38.29,0,*64
1484409833.16,46943,6.75,71528.3,-18.11,-37.51,-38.35,0,*68
1484409834.41,46944,6.75,71522.8,-18.11,-37.39,-38.35,0,*61
1484409835.65,46945,6.75,71524.3,-18.11,-37.51,-38.35,0,*6E
1484409836.93,46946,6.75,71522.5,-18.09,-37.51,-38.35,0,*64
1484409838.14,46947,6.75,71524.0,-18.11,-37.75,-38.73,0,*68
1484409839.42,46948,6.75,71526.8,-18.09,-37.81,-38.85,0,*6C
1484409840.65,46949,6.75,71520.5,-18.11,-38.11,-38.97,0,*61
1484409841.92,46950,6.75,71522.5,-18.11,-37.99,-38.91,0,*60
1484409843.15,46951,6.75,71522.3,-18.11,-38.17,-38.85,0,*6D
1484409844.42,46952,6.75,71520.8,-18.11,-37.93,-38.91,0,*68
1484409845.65,46953,6.75,71522.0,-18.15,-38.05,-38.97,0,*6B
1484409846.9,46954,6.75,71518.5,-18.11,-37.93,-38.85,0,*6B
1484409848.15,46955,6.75,71518.3,-18.15,-37.87,-38.61,0,*61
1484409849.42,46956,6.75,71526.5,-18.15,-37.69,-38.61,0,*62
1484409850.66,46957,6.75,71528.0,-18.15,-37.45,-38.35,0,*6C
1484409851.9,46958,6.75,71526.5,-18.15,-37.57,-38.43,0,*61
1484409853.2,46959,6.75,71526.8,-18.15,-37.63,-38.79,0,*6E
1484409854.47,46960,6.75,71528.5,-18.15,-37.87,-38.79,0,*6E
1484409855.73,46961,6.75,71524.5,-18.15,-37.69,-38.73,0,*65
1484409857.0,46962,6.75,71528.3,-18.15,-37.81,-38.73,0,*60
1484409858.27,46963,6.75,71532.3,-18.15,-37.69,-38.61,0,*64
1484409859.54,46964,6.75,71534.3,-18.15,-37.87,-38.79,0,*6A
1484409860.81,46965,6.75,71532.5,-18.15,-37.69,-38.55,0,*65
1484409862.05,46966,6.75,71530.8,-18.17,-37.69,-38.61,0,*63
1484409863.3,46967,6.75,71530.8,-18.11,-37.57,-38.29,0,*65
1484409864.55,46968,6.75,71532.0,-18.11,-37.63,-38.55,0,*66
1484409865.8,46969,6.75,71528.8,-18.11,-37.63,-38.55,0,*67
1484409867.02,46970,6.81,71534.8,-18.11,-37.57,-38.55,0,*68
1484409868.29,46971,6.75,71530.8,-18.11,-37.63,-38.67,0,*6F
1484409869.56,46972,6.75,71530.5,-18.15,-37.81,-38.73,0,*61
1484409870.83,46973,6.75,71530.3,-18.15,-37.69,-38.55,0,*62
1484409872.1,46974,6.75,71530.0,-18.15,-37.63,-38.55,0,*6F
1484409873.34,46975,6.75,71530.8,-18.09,-37.57,-38.55,0,*64
1484409874.57,46976,6.75,71530.8,-18.11,-37.57,-38.55,0,*6E
1484409875.81,46977,6.75,71530.8,-18.11,-37.75,-38.67,0,*6E
1484409877.05,46978,6.75,71526.5,-18.11,-37.81,-38.73,0,*6F
1484409878.32,46979,6.75,71530.3,-18.11,-37.63,-38.67,0,*67
1484409879.59,46980,6.75,71528.3,-18.09,-37.81,-38.73,0,*61
1484409880.86,46981,6.75,71530.5,-18.09,-37.75,-38.67,0,*6E
1484409882.08,46982,6.75,71530.8,-18.11,-37.75,-38.85,0,*68
1484409883.32,46983,6.75,71528.0,-18.11,-38.11,-38.97,0,*67
1484409884.59,46984,6.75,71526.5,-18.11,-37.99,-38.91,0,*69
1484409885.81,46985,6.75,71530.3,-18.11,-38.17,-39.09,0,*61
1484409887.05,46986,6.75,71532.3,-18.11,-38.11,-38.97,0,*62
1484409888.27,46987,6.75,71532.0,-18.11,-38.17,-38.97,0,*65
1484409889.51,46988,6.75,71530.8,-18.11,-37.99,-38.97,0,*63
1484409890.76,46989,6.75,71526.0,-18.11,-37.99,-38.85,0,*61
1484409891.97,46990,6.75,71524.8,-18.11,-38.17,-38.97,0,*63
1484409893.2,46991,6.75,71526.3,-18.11,-38.17,-39.09,0,*64
1484409894.42,46992,6.75,71526.5,-18.11,-38.17,-39.09,0,*67
1484409895.69,46993,6.75,71524.3,-18.11,-38.29,-39.15,0,*66
1484409896.91,46994,6.75,71528.0,-18.11,-38.17,-39.09,0,*61
1484409898.15,46995,6.75,71524.8,-18.11,-38.35,-39.15,0,*6D
1484409899.39,46996,6.75,71524.3,-18.11,-38.35,-39.29,0,*61
1484409900.66,46997,6.75,71524.8,-18.11,-38.29,-39.15,0,*62
1484409901.92,46998,6.75,71530.0,-18.15,-38.35,-39.23,0,*61
1484409903.19,46999,6.75,71528.3,-18.15,-38.17,-39.03,0,*62
1484409904.42,47000,6.75,71526.3,-18.17,-38.43,-39.15,0,*6E
1484409905.66,47001,6.75,71530.0,-18.15,-38.61,-39.35,0,*6F
1484409906.92,47002,6.75,71530.0,-18.17,-38.67,-39.59,0,*62
1484409908.18,47003,6.75,71522.8,-18.15,-38.61,-39.53,0,*6D
1484409909.44,47004,6.75,71522.0,-18.15,-38.73,-39.53,0,*69
1484409910.71,47005,6.75,71518.5,-18.17,-38.79,-39.59,0,*6A
1484409911.93,47006,6.75,71516.3,-18.17,-38.85,-39.65,0,*65
1484409913.17,47007,6.75,71520.5,-18.17,-38.61,-39.59,0,*61
1484409914.39,47008,6.75,71518.5,-18.17,-38.67,-39.47,0,*67
1484409915.65,47009,6.75,71520.8,-18.17,-38.67,-39.59,0,*69
1484409916.92,47010,6.75,71520.8,-18.17,-38.79,-39.59,0,*6E
1484409918.22,47011,6.75,71524.8,-18.19,-38.79,-39.59,0,*61
1484409919.49,47012,6.75,71520.8,-18.19,-38.85,-39.59,0,*61
1484409920.76,47013,6.75,71526.0,-18.21,-38.79,-39.59,0,*68
1484409922.06,47014,6.75,71524.5,-18.19,-38.79,-39.59,0,*64
1484409923.3,47015,6.75,71524.8,-18.21,-38.43,-39.29,0,*60
1484409924.57,47016,6.75,71526.3,-18.21,-38.49,-39.29,0,*69
1484409925.83,47017,6.75,71526.8,-18.19,-38.61,-39.41,0,*67
1484409927.1,47018,6.75,71524.5,-18.21,-38.67,-39.59,0,*6C
1484409928.37,47019,6.75,71524.5,-18.21,-38.67,-39.59,0,*6D
1484409929.62,47020,6.75,71524.5,-18.21,-38.79,-39.65,0,*67
1484409930.83,47021,6.75,71526.3,-18.21,-38.85,-39.47,0,*65
1484409932.06,47022,6.75,71526.3,-18.21,-38.85,-39.65,0,*66
1484409933.33,47023,6.75,71526.3,-18.21,-38.79,-39.79,0,*69
1484409934.58,47024,6.75,71524.8,-18.21,-38.85,-39.79,0,*6D
1484409935.85,47025,6.75,71528.8,-18.23,-38.91,-39.85,0,*68
1484409937.12,47026,6.75,71528.8,-18.23,-38.85,-39.53,0,*65
1484409938.38,47027,6.75,71528.5,-18.27,-38.49,-39.35,0,*60
1484409939.68,47028,6.75,71530.5,-18.23,-38.29,-39.29,0,*60
1484409940.98,47029,6.75,71528.5,-18.23,-38.29,-39.15,0,*6E
1484409942.24,47030,6.75,71528.5,-18.23,-38.11,-39.09,0,*60
1484409943.53,47031,6.75,71528.5,-18.23,-38.11,-39.03,0,*6B
1484409944.78,47032,6.75,71530.8,-18.23,-38.17,-39.09,0,*64
1484409946.05,47033,6.75,71526.3,-18.27,-38.35,-39.15,0,*6C
1484409947.34,47034,6.75,71530.5,-18.23,-38.11,-38.91,0,*64
1484409948.61,47035,6.75,71528.5,-18.23,-37.99,-38.85,0,*6F
1484409949.9,47036,6.75,71526.5,-18.27,-38.11,-38.91,0,*62
1484409951.17,47037,6.75,71524.3,-18.23,-38.17,-38.91,0,*61
1484409952.42,47038,6.75,71526.5,-18.23,-38.17,-39.09,0,*6E
1484409953.71,47039,6.75,71524.3,-18.23,-38.29,-39.03,0,*68
1484409954.98,47040,6.75,71526.0,-18.23,-38.17,-39.15,0,*6C
1484409956.27,47041,6.75,71524.8,-18.23,-38.11,-39.03,0,*6C
1484409957.53,47042,6.75,71528.5,-18.21,-38.11,-39.03,0,*6D
1484409958.8,47043,6.75,71530.3,-18.21,-38.29,-39.23,0,*65
1484409960.04,47044,6.75,71530.3,-18.21,-38.49,-39.47,0,*66
1484409961.31,47045,6.75,71528.0,-18.21,-38.67,-39.59,0,*64
1484409962.53,47046,6.75,71524.8,-18.21,-38.85,-39.65,0,*64
1484409963.79,47047,6.75,71524.3,-18.23,-38.85,-39.65,0,*67
1484409965.05,47048,6.75,71526.8,-18.27,-38.73,-39.53,0,*60
1484409966.33,47049,6.75,71528.0,-18.27,-38.67,-39.53,0,*64
1484409967.6,47050,6.75,71528.0,-18.27,-38.73,-39.53,0,*69
1484409968.87,47051,6.75,71528.0,-18.27,-38.85,-39.71,0,*61
1484409970.12,47052,6.75,71530.5,-18.23,-38.85,-39.65,0,*63
1484409971.39,47053,6.75,71532.0,-18.27,-38.85,-39.53,0,*63
1484409972.66,47054,6.75,71530.3,-18.23,-38.49,-39.35,0,*60
1484409973.96,47055,6.75,71534.3,-18.23,-38.29,-39.15,0,*65
1484409975.21,47056,6.75,71534.0,-18.23,-38.17,-39.09,0,*66
1484409976.47,47057,6.75,71534.0,-18.23,-38.17,-39.15,0,*6A
1484409977.75,47058,6.75,71534.8,-18.27,-38.29,-39.09,0,*61
1484409979.01,47059,6.75,71526.0,-18.23,-38.35,-39.29,0,*6B
1484409980.31,47060,6.75,71530.5,-18.23,-38.29,-39.15,0,*63
1484409981.61,47061,6.75,71524.3,-18.23,-38.29,-39.15,0,*62
1484409982.85,47062,6.75,71528.0,-18.23,-38.17,-39.09,0,*61
1484409984.14,47063,6.75,71528.3,-18.23,-38.11,-39.03,0,*6C
1484409985.41,47064,6.75,71528.5,-18.23,-38.17,-39.03,0,*6D
1484409986.67,47065,6.75,71528.3,-18.27,-38.17,-39.03,0,*68
1484409987.95,47066,6.75,71528.5,-18.23,-37.93,-38.85,0,*63
1484409989.23,47067,6.75,71526.3,-18.23,-38.11,-39.03,0,*68
1484409990.53,47068,6.75,71524.3,-18.23,-37.99,-38.91,0,*62
1484409991.77,47069,6.75,71522.8,-18.21,-37.93,-38.97,0,*6D
1484409993.02,47070,6.75,71526.3,-18.21,-37.87,-38.67,0,*6F
1484409994.28,47071,6.75,71526.5,-18.19,-37.75,-38.67,0,*68
1484409995.51,47072,6.75,71524.5,-18.21,-37.87,-38.85,0,*61
1484409996.78,47073,6.75,71520.8,-18.19,-37.93,-38.85,0,*6E
1484409998.02,47074,6.75,71524.3,-18.21,-37.93,-38.85,0,*62
1484409999.29,47075,6.75,71524.0,-18.19,-37.93,-38.97,0,*6B
1484410000.57,47076,6.75,71524.0,-18.19,-38.11,-39.29,0,*69
1484410001.83,47077,6.75,71524.5,-18.19,-38.29,-39.47,0,*6B
1484410003.13,47078,6.75,71526.3,-18.19,-38.29,-39.79,0,*69
1484410004.39,47079,6.75,71526.0,-18.19,-38.23,-39.47,0,*6F
1484410005.66,47080,6.75,71526.5,-18.19,-38.29,-39.65,0,*63
1484410006.93,47081,6.75,71526.8,-18.21,-38.29,-39.59,0,*66
1484410008.19,47082,6.75,71526.3,-18.19,-38.23,-39.47,0,*6B
1484410009.48,47083,6.75,71524.8,-18.19,-38.29,-39.59,0,*6F
1484410010.77,47084,6.75,71528.0,-18.19,-37.93,-39.29,0,*61
1484410012.05,47085,6.75,71528.0,-18.19,-38.11,-39.41,0,*6B
1484410013.32,47086,6.75,71524.8,-18.15,-38.35,-39.71,0,*61
1484410014.55,47087,6.75,71522.0,-18.17,-38.35,-39.59,0,*68
1484410015.82,47088,6.75,71524.0,-18.17,-38.49,-39.97,0,*6E
1484410017.05,47089,6.75,71526.5,-18.17,-38.29,-39.47,0,*64
1484410018.32,47090,6.75,71524.8,-18.17,-38.29,-39.59,0,*63
1484410019.58,47091,6.75,71526.0,-18.17,-38.29,-39.79,0,*60
1484410020.8,47092,6.75,71524.3,-18.17,-38.43,-39.65,0,*62
1484410022.04,47093,6.75,71524.5,-18.17,-38.23,-39.65,0,*65
1484410023.32,47094,6.75,71526.8,-18.15,-38.23,-39.41,0,*66
1484410024.53,47095,6.75,71526.3,-18.17,-38.43,-39.65,0,*65
1484410025.8,47096,6.75,71524.8,-18.15,-38.35,-39.59,0,*6A
1484410027.07,47097,6.75,71526.0,-18.15,-38.35,-39.59,0,*6B
1484410028.36,47098,6.75,71522.8,-18.15,-38.23,-39.59,0,*63
1484410029.64,47099,6.75,71526.5,-18.15,-38.23,-39.41,0,*6B
1484410030.9,47100,6.75,71522.5,-18.15,-38.17,-39.41,0,*6D
1484410032.17,47101,6.75,71522.5,-18.15,-37.87,-39.23,0,*6E
1484410033.44,47102,6.75,71526.8,-18.15,-37.87,-39.23,0,*6D
1484410034.69,47103,6.75,71526.0,-18.11,-38.29,-39.65,0,*61
1484410035.97,47104,6.75,71520.5,-18.11,-38.49,-39.71,0,*65
1484410037.23,47105,6.75,71522.8,-18.11,-38.29,-39.53,0,*62
1484410038.5,47106,6.75,71520.5,-18.11,-37.93,-39.29,0,*62
1484410039.73,47107,6.75,71522.0,-18.09,-38.35,-39.47,0,*61
1484410040.97,47108,6.75,71524.5,-18.11,-38.11,-39.47,0,*61
1484410042.22,47109,6.75,71522.8,-18.09,-38.11,-39.35,0,*6C
1484410043.44,47110,6.75,71526.8,-18.11,-38.35,-39.65,0,*6E
1484410044.69,47111,6.75,71520.5,-18.11,-38.35,-39.71,0,*6A
1484410045.95,47112,6.75,71522.0,-18.09,-38.17,-39.53,0,*60
1484410047.18,47113,6.75,71516.8,-18.09,-38.17,-39.35,0,*61
1484410048.45,47114,6.75,71520.3,-18.09,-38.35,-39.71,0,*66
1484410049.69,47115,6.75,71524.0,-18.09,-38.35,-39.65,0,*62
1484410050.94,47116,6.75,71522.8,-18.09,-38.35,-39.65,0,*61
1484410052.2,47117,6.75,71522.3,-18.09,-38.35,-39.71,0,*65
1484410053.44,47118,6.75,71520.0,-18.09,-38.55,-39.85,0,*67
1484410054.71,47119,6.75,71522.0,-18.09,-38.35,-39.71,0,*6B
1484410056.01,47120,6.75,71522.5,-18.09,-38.49,-39.71,0,*6A
1484410057.25,47121,6.75,71524.8,-18.09,-38.35,-39.65,0,*65
1484410058.54,47122,6.75,71524.0,-18.09,-38.49,-39.53,0,*68
1484410059.84,47123,6.75,71526.8,-18.09,-38.49,-39.71,0,*69
1484410061.11,47124,6.75,71524.3,-18.09,-38.49,-39.85,0,*65
1484410062.38,47125,6.75,71526.0,-18.09,-38.67,-39.91,0,*6D
1484410063.62,47126,6.75,71522.3,-18.09,-38.55,-39.91,0,*6F
1484410064.87,47127,6.75,71526.0,-18.09,-38.55,-39.91,0,*6E
1484410066.13,47128,6.75,71526.8,-18.09,-38.67,-40.03,0,*65
1484410067.35,47129,6.75,71528.3,-18.07,-38.61,-39.85,0,*6C
1484410068.62,47130,6.75,71526.3,-18.09,-38.67,-39.91,0,*69
1484410069.86,47131,6.75,71526.8,-18.09,-38.55,-39.91,0,*69
1484410071.08,47132,6.75,71524.5,-18.07,-38.43,-40.03,0,*66
1484410072.35,47133,6.75,71530.8,-18.09,-38.49,-39.85,0,*63
1484410073.6,47134,6.75,71528.3,-18.07,-38.49,-39.85,0,*6A
1484410074.85,47135,6.75,71530.8,-18.07,-38.49,-39.85,0,*6B
1484410076.1,47136,6.75,71526.3,-18.09,-38.73,-39.91,0,*6A
1484410077.36,47137,6.75,71526.3,-18.09,-38.55,-39.71,0,*61
1484410078.64,47138,6.75,71520.8,-18.07,-38.49,-39.79,0,*65
1484410079.87,47139,6.75,71526.5,-18.07,-38.61,-39.85,0,*6D
1484410081.11,47140,6.75,71526.3,-18.09,-38.73,-40.15,0,*69
1484410082.39,47141,6.75,71522.0,-18.05,-38.85,-40.21,0,*6A
1484410083.66,47142,6.75,71522.5,-18.07,-38.79,-40.21,0,*68
1484410084.94,47143,6.75,71526.5,-18.07,-38.79,-40.21,0,*69
1484410086.17,47144,6.75,71522.5,-18.07,-38.61,-39.65,0,*69
1484410087.42,47145,6.75,71516.5,-18.07,-38.43,-39.59,0,*67
1484410088.64,47146,6.75,71524.0,-18.07,-38.61,-39.85,0,*65
1484410089.94,47147,6.75,71526.0,-18.05,-38.67,-40.09,0,*6A
1484410091.21,47148,6.75,71528.3,-18.05,-38.85,-40.29,0,*6B
1484410092.51,47149,6.75,71530.3,-18.05,-38.79,-39.97,0,*62
1484410093.79,47150,6.75,71528.8,-18.05,-38.85,-40.29,0,*62
1484410095.09,47151,6.75,71524.0,-18.05,-38.79,-39.97,0,*6B
1484410096.39,47152,6.75,71524.8,-18.05,-38.79,-40.09,0,*61
1484410097.63,47153,6.75,71526.3,-18.01,-38.73,-40.03,0,*64
1484410098.9,47154,6.75,71528.5,-18.05,-38.85,-40.21,0,*6E
1484410100.2,47155,6.75,71528.5,-18.05,-38.91,-40.41,0,*6C
1484410101.48,47156,6.75,71528.8,-18.05,-39.09,-40.59,0,*66
1484410102.74,47157,6.75,71530.3,-18.05,-39.09,-40.47,0,*68